Date String (YYYY-MM-DD hh:mm:ss) UTC,Instrument flags,Ambient pressure (hPa),Sample flow (lpm),Bypass flow (lpm),Sample temperature (°C),Ambient temperature (°C),ASC tube jacket temperature (°C),LED temperature (°C),Box temperature (°C),Sample RH (%),Span deviation,Mass concentration (μg/m³),Mass concentration (μg/m³),Mass concentration (μg/m³)
DateTimeUTC,F1_M11,P_M11,Q1_M11,Q2_M11,T1_M11,T2_M11,T3_M11,T4_M11,T5_M11,U1_M11,ZSPAN_M11,X0_M11,X2_M11,X1_M11
2023-01-16 19:00:00,,0812.1,5.00,0.00,22.7,21.2,00.0,31.5,24.4,16.7,-000.4,0013.71,0008.18,0007.79
2023-01-16 19:01:00,,0812.0,5.00,0.00,22.7,21.2,00.0,31.5,24.5,16.8,-001.6,0014.00,0008.41,0008.02
2023-01-16 19:02:00,,0812.0,4.99,0.00,22.7,21.2,00.0,31.5,24.4,16.8,-001.5,0014.14,0008.51,0008.14
2023-01-16 19:03:00,,0812.1,5.00,0.00,22.6,21.1,00.0,31.5,24.3,16.9,-001.5,0014.02,0008.59,0008.23
2023-01-16 19:04:00,,0812.0,5.00,0.00,22.6,21.0,00.0,31.5,24.3,16.7,-001.6,0013.76,0008.65,0008.32
2023-01-16 19:05:00,,0812.0,4.99,0.00,22.6,21.0,00.0,31.5,24.3,17.1,-002.0,0013.81,0008.69,0008.36
2023-01-16 19:06:00,,0812.1,5.01,0.00,22.6,21.0,00.0,31.5,24.3,17.3,-001.5,0013.83,0008.75,0008.42
2023-01-16 19:07:00,,0812.1,5.00,0.00,22.6,21.0,00.0,31.5,24.3,17.3,-000.8,0013.78,0008.82,0008.48
2023-01-16 19:08:00,,0812.0,5.00,0.00,22.5,21.0,00.0,31.5,24.3,17.0,-001.8,0013.45,0008.86,0008.51
2023-01-16 19:09:00,,0811.8,4.99,0.00,22.5,21.0,00.0,31.5,24.3,15.9,-002.5,0013.17,0008.84,0008.47
2023-01-16 19:10:00,,0811.8,5.02,0.00,22.5,21.0,00.0,31.5,24.3,15.2,-003.1,0013.14,0008.79,0008.39
2023-01-16 19:11:00,,0811.8,4.99,0.00,22.5,21.1,00.0,31.5,24.3,14.8,-003.1,0012.56,0008.67,0008.27
2023-01-16 19:12:00,,0811.8,4.99,0.00,22.5,21.1,00.0,31.5,24.3,14.5,-002.9,0012.34,0008.53,0008.11
2023-01-16 19:13:00,,0811.9,5.00,0.00,22.5,21.2,00.0,31.4,24.3,15.2,-002.4,0012.20,0008.48,0008.04
2023-01-16 19:14:00,,0811.8,5.00,0.00,22.5,21.2,00.0,31.4,24.3,15.6,-001.8,0012.11,0008.42,0007.98
2023-01-16 19:15:00,,0811.9,5.02,0.00,22.6,21.2,00.0,31.4,24.4,15.6,-000.5,0012.08,0008.38,0007.95
2023-01-16 19:16:00,,0811.9,5.00,0.00,22.6,21.2,00.0,31.4,24.4,15.4,0000.0,0011.93,0008.26,0007.83
2023-01-16 19:17:00,,0811.8,5.00,0.00,22.5,21.2,00.0,31.4,24.3,12.7,0000.0,0011.36,0007.77,0007.38
2023-01-16 19:18:00,,0811.8,5.00,0.00,22.5,21.2,00.0,31.4,24.3,12.5,0000.0,0010.78,0007.26,0006.89
2023-01-16 19:19:00,,0811.8,5.00,0.00,22.5,21.2,00.0,31.4,24.3,12.5,0000.0,0010.02,0006.70,0006.35
2023-01-16 19:20:00,,0811.8,5.00,0.00,22.5,21.2,00.0,31.4,24.3,15.3,0000.0,0009.53,0006.48,0006.13
2023-01-16 19:21:00,,0811.8,4.99,0.00,22.6,21.2,00.0,31.4,24.3,16.6,0000.0,0009.67,0006.60,0006.25
2023-01-16 19:22:00,,0811.8,5.00,0.00,22.5,21.2,00.0,31.4,24.3,15.6,0000.0,0009.65,0006.62,0006.30
2023-01-16 19:23:00,,0811.9,5.01,0.00,22.5,21.2,00.0,31.4,24.4,12.9,0000.0,0009.22,0006.30,0006.02
2023-01-16 19:24:00,,0811.8,4.97,0.00,22.6,21.3,00.0,31.4,24.4,15.7,0000.0,0009.14,0006.20,0005.94
2023-01-16 19:25:00,,0811.8,5.03,0.00,22.6,21.3,00.0,31.4,24.4,17.0,0000.0,0009.63,0006.29,0006.02
2023-01-16 19:26:00,,0811.7,5.02,0.00,22.6,21.3,00.0,31.4,24.4,16.8,0000.0,0009.78,0006.39,0006.11
2023-01-16 19:27:00,,0811.7,5.00,0.00,22.6,21.3,00.0,31.4,24.4,17.1,0000.0,0009.98,0006.51,0006.21
2023-01-16 19:28:00,,0811.8,5.02,0.00,22.6,21.3,00.0,31.4,24.4,17.7,0000.0,0010.70,0006.91,0006.60
2023-01-16 19:29:00,,0811.7,4.99,0.00,22.6,21.3,00.0,31.4,24.4,18.1,-000.1,0011.69,0007.61,0007.26
2023-01-16 19:30:00,,0811.7,5.03,0.00,22.6,21.3,00.0,31.4,24.4,18.3,-000.3,0012.40,0008.26,0007.91
2023-01-16 19:31:00,,0811.7,5.00,0.00,22.6,21.3,00.0,31.4,24.5,18.4,-000.9,0012.97,0008.73,0008.37
2023-01-16 19:32:00,,0811.7,5.00,0.00,22.6,21.3,00.0,31.4,24.5,18.6,-001.6,0013.05,0008.86,0008.52
2023-01-16 19:33:00,,0811.7,5.01,0.00,22.6,21.3,00.0,31.4,24.4,18.4,-001.2,0013.41,0009.09,0008.73
2023-01-16 19:34:00,,0811.7,4.99,0.00,22.6,21.4,00.0,31.4,24.5,17.9,-001.2,0014.42,0009.69,0009.29
2023-01-16 19:35:00,,0811.7,5.01,0.00,22.6,21.4,00.0,31.4,24.5,18.3,-001.6,0015.05,0010.13,0009.71
2023-01-16 19:36:00,,0811.7,5.00,0.00,22.6,21.3,00.0,31.4,24.5,18.2,-001.9,0014.84,0010.29,0009.87
2023-01-16 19:37:00,,0811.7,5.01,0.00,22.6,21.3,00.0,31.4,24.5,18.3,-002.0,0015.10,0010.49,0010.06
2023-01-16 19:38:00,,0811.6,5.01,0.00,22.6,21.3,00.0,31.4,24.4,18.2,-002.3,0015.31,0010.67,0010.23
2023-01-16 19:39:00,,0811.7,4.99,0.00,22.6,21.3,00.0,31.4,24.4,18.2,-002.1,0015.68,0010.79,0010.32
2023-01-16 19:40:00,,0811.7,5.01,0.00,22.6,21.3,00.0,31.4,24.4,18.3,-001.8,0015.52,0010.88,0010.39
2023-01-16 19:41:00,,0811.7,5.00,0.00,22.6,21.3,00.0,31.4,24.4,18.5,-001.9,0015.65,0010.97,0010.46
2023-01-16 19:42:00,,0811.7,4.99,0.00,22.6,21.3,00.0,31.4,24.4,18.7,-001.7,0015.75,0011.07,0010.55
2023-01-16 19:43:00,,0811.7,5.01,0.00,22.6,21.2,00.0,31.4,24.4,18.6,-001.5,0016.51,0011.19,0010.66
2023-01-16 19:44:00,,0811.7,5.00,0.00,22.6,21.2,00.0,31.4,24.4,18.4,-001.4,0017.02,0011.35,0010.77
2023-01-16 19:45:00,,0811.7,5.00,0.00,22.6,21.1,00.0,31.4,24.3,18.5,-001.4,0017.44,0011.54,0010.96
2023-01-16 19:46:00,,0811.7,5.00,0.00,22.6,21.1,00.0,31.4,24.3,18.7,-001.1,0017.54,0011.70,0011.12
2023-01-16 19:47:00,,0811.7,5.00,0.00,22.6,21.6,00.0,31.4,24.5,18.6,-001.1,0018.34,0011.89,0011.30
2023-01-16 19:48:00,,0811.7,4.99,0.00,22.7,22.6,00.0,31.4,24.7,18.5,-001.2,0018.57,0012.03,0011.44
2023-01-16 19:49:00,,0811.7,5.00,0.00,22.8,23.0,00.0,31.5,24.9,18.4,-001.2,0018.60,0012.15,0011.58
2023-01-16 19:50:00,,0811.7,5.00,0.00,22.8,22.7,00.0,31.5,24.8,18.0,-001.2,0018.27,0012.26,0011.69
2023-01-16 19:51:00,,0811.7,5.00,0.00,22.8,22.4,00.0,31.5,24.8,17.5,-001.5,0018.27,0012.29,0011.74
2023-01-16 19:52:00,,0811.6,5.02,0.00,22.8,22.2,00.0,31.6,24.7,17.5,-001.7,0018.42,0012.34,0011.78
2023-01-16 19:53:00,,0811.6,5.00,0.00,22.8,22.0,00.0,31.6,24.7,17.6,-001.6,0018.71,0012.42,0011.85
2023-01-16 19:54:00,,0811.6,4.99,0.00,22.8,21.8,00.0,31.6,24.7,17.8,-001.7,0018.11,0012.45,0011.85
2023-01-16 19:55:00,,0811.5,4.99,0.00,22.8,21.7,00.0,31.6,24.7,18.1,-001.9,0017.69,0012.46,0011.91
2023-01-16 19:56:00,,0811.5,4.99,0.00,22.8,21.6,00.0,31.6,24.6,17.7,-002.0,0017.36,0012.40,0011.86
2023-01-16 19:57:00,,0811.6,5.00,0.00,22.8,21.5,00.0,31.6,24.6,17.9,-002.5,0017.53,0012.38,0011.82
2023-01-16 19:58:00,,0811.6,5.01,0.00,22.8,21.4,00.0,31.6,24.6,18.3,-002.8,0017.46,0012.37,0011.84
2023-01-16 19:59:00,,0811.6,5.02,0.00,22.8,21.4,00.0,31.6,24.6,18.5,-002.8,0017.65,0012.40,0011.88
